{"data":{"norad_id":48230,"epoch":"2026-09-19T18:51:08.372448Z","epoch_age_seconds":80029,"freshness":"FRESH","line1":"1 48230U 21031W   26262.78551357  .00000232  00000+0  59241-3 0  9993","line2":"2 48230  87.8894 270.8500 0001615  96.5344 263.5970 13.14505164260661","mean_motion":13.14505164,"eccentricity":0.0001615,"inclination_deg":87.8894,"raan_deg":270.85,"arg_perigee_deg":96.5344,"mean_anomaly_deg":263.597,"bstar":0.00059241,"rev_number":26066,"period_min":109.54692605529,"perigee_km":1204.556459242,"apogee_km":1207.0060648406,"semimajor_km":7583.9182620413,"source":"CELESTRAK","updated_at":"2026-09-20T09:00:44.596292Z"}}